Air Resources Laboratory banner image
Air Resources Laboratory web site National Oceanic and Atmospheric Administration (NOAA)

ma zone


MAZ001-262015-
Northern Berkshire-
Including the cities of Pittsfield, Adams, and North Adams
1101 AM EDT Sat May 26 2018

.TODAY...Mostly sunny. Hot with highs in the upper 80s. West winds
5 to 10 mph.
.TONIGHT...Mostly cloudy with a chance of showers. Lows in the upper
50s. North winds 5 to 10 mph, becoming east 10 to 15 mph with gusts
up to 25 mph after midnight. Chance of rain 40 percent.
.SUNDAY...Mostly cloudy with scattered showers. Much cooler. Near
steady temperature in the upper 50s. East winds 10 to 15 mph with
gusts up to 25 mph. Chance of rain 40 percent.
.SUNDAY NIGHT...Mostly cloudy. Scattered showers after midnight.
Lows around 50. East winds 10 to 15 mph. Chance of rain 30 percent.
.MEMORIAL DAY...Mostly cloudy with scattered showers in the morning,
then partly sunny in the afternoon. Warmer with highs in the mid
70s. Southeast winds around 5 mph, becoming southwest in the
afternoon. Chance of rain 30 percent.
.MONDAY NIGHT...Mostly cloudy in the evening, then becoming partly
cloudy. Lows in the upper 50s.
.TUESDAY...Mostly sunny. Highs in the upper 70s.
.TUESDAY NIGHT AND WEDNESDAY...Mostly clear. Lows around 50. Highs
in the upper 70s.
.WEDNESDAY NIGHT...Mostly clear in the evening, then becoming partly
cloudy. Lows in the mid 50s.
.THURSDAY...Partly sunny. Highs in the upper 70s.
.THURSDAY NIGHT...Mostly cloudy with a 30 percent chance of showers.
Lows in the upper 50s.
.FRIDAY...Cloudy with a chance of rain. Highs in the lower 70s.
Chance of rain 50 percent.


MAZ025-262015-
Southern Berkshire-
Including the cities of Great Barrington, Lee, Lenox, and Housatonic
1101 AM EDT Sat May 26 2018

.TODAY...Sunny this morning, then becoming partly sunny. Hot with
highs in the upper 80s. West winds 5 to 10 mph.
.TONIGHT...Mostly cloudy with a chance of showers. Lows in the upper
50s. North winds around 5 mph, becoming east after midnight. Chance
of rain 50 percent.
.SUNDAY...Cloudy with scattered showers. Much cooler. Near steady
temperature around 60. East winds around 10 mph. Chance of rain
40 percent.
.SUNDAY NIGHT...Cloudy with scattered showers. Lows in the lower
50s. East winds 5 to 10 mph. Chance of rain 30 percent.
.MEMORIAL DAY...Mostly cloudy with scattered showers in the morning,
then partly sunny in the afternoon. Warmer with highs in the lower
70s. Southeast winds around 5 mph, becoming southwest around 5 mph
in the afternoon. Chance of rain 30 percent.
.MONDAY NIGHT...Mostly cloudy in the evening, then becoming partly
cloudy. Lows around 60.
.TUESDAY...Mostly sunny. Highs in the lower 80s.
.TUESDAY NIGHT AND WEDNESDAY...Mostly clear. Lows in the lower 50s.
Highs around 80.
.WEDNESDAY NIGHT...Partly cloudy. Lows in the mid 50s.
.THURSDAY...Partly sunny in the morning, then becoming mostly
cloudy. Highs in the upper 70s.
.THURSDAY NIGHT...Mostly cloudy with a 30 percent chance of showers.
Lows in the upper 50s.
.FRIDAY...Cloudy with a chance of rain. Highs in the mid 70s. Chance
of rain 40 percent.


MAZ001-262015-
Northern Berkshire-
Including the cities of Pittsfield, Adams, and North Adams
1101 AM EDT Sat May 26 2018

.TODAY...Mostly sunny. Hot with highs in the upper 80s. West winds
5 to 10 mph.
.TONIGHT...Mostly cloudy with a chance of showers. Lows in the upper
50s. North winds 5 to 10 mph, becoming east 10 to 15 mph with gusts
up to 25 mph after midnight. Chance of rain 40 percent.
.SUNDAY...Mostly cloudy with scattered showers. Much cooler. Near
steady temperature in the upper 50s. East winds 10 to 15 mph with
gusts up to 25 mph. Chance of rain 40 percent.
.SUNDAY NIGHT...Mostly cloudy. Scattered showers after midnight.
Lows around 50. East winds 10 to 15 mph. Chance of rain 30 percent.
.MEMORIAL DAY...Mostly cloudy with scattered showers in the morning,
then partly sunny in the afternoon. Warmer with highs in the mid
70s. Southeast winds around 5 mph, becoming southwest in the
afternoon. Chance of rain 30 percent.
.MONDAY NIGHT...Mostly cloudy in the evening, then becoming partly
cloudy. Lows in the upper 50s.
.TUESDAY...Mostly sunny. Highs in the upper 70s.
.TUESDAY NIGHT AND WEDNESDAY...Mostly clear. Lows around 50. Highs
in the upper 70s.
.WEDNESDAY NIGHT...Mostly clear in the evening, then becoming partly
cloudy. Lows in the mid 50s.
.THURSDAY...Partly sunny. Highs in the upper 70s.
.THURSDAY NIGHT...Mostly cloudy with a 30 percent chance of showers.
Lows in the upper 50s.
.FRIDAY...Cloudy with a chance of rain. Highs in the lower 70s.
Chance of rain 50 percent.


NYZ176-178-MAZ016-IL014-TNZ027-NJZ106-GAZ044-MD014-261600-

...Gateway Observations for Charleston International...

CITY           SKY/WX    TMP DP  RH WIND       PRES   REMARKS
Chas Airport   PTSUNNY   84  72  67 S8        30.00F
Seattle        PTSUNNY   55  45  68 SE6       30.15R
Charlotte      PTSUNNY   75  72  88 SW9       30.00S
Dallas DFW     MOSUNNY   82  68  62 S3        29.85R
Dallas Love    MOSUNNY   80  68  66 CALM      29.85S
Philladelphia  PTSUNNY   79  67  66 SW9       29.86F
Wash National  FAIR      82  69  64 S10       29.88F
Baltimore      FAIR      85  70  60 W8        29.86F
Miami          LGT RAIN  77  75  93 E14       29.94S FOG
Detroit        CLOUDY    71  60  68 CALM      29.82F
Newark         PTSUNNY   86  65  49 W5        29.82F
Laguardia      PTSUNNY   84  64  50 NW6       29.82S
J F K          PTSUNNY   79  69  71 S10       29.84S
Boston Logan   NOT AVBL
Ft. Lauderdale LGT RAIN  78  76  93 SE17      29.94S
Chicago O'Hare PTSUNNY   79  63  57 SW6       29.79R
Chicago Midway PTSUNNY   77  65  66 W3        29.79S
Houston Bush   PTSUNNY   84  74  71 SW8       29.87S HX  91
Houston Hobby  PTSUNNY   83  76  79 SW12      29.87F HX  91
Nashville      PTSUNNY   78  68  71 VRB6      29.95S
Atlanta        PTSUNNY   75  68  78 W5        30.00F


NYZ176-178-MAZ106-OHZ011-021-055-MIZ076-KYZ091-ILZ014-INZ047-
MNZ060-ONZ431-261600-

...Gateway Observations for Savannah International...

CITY           SKY/WX    TMP DP  RH WIND       PRES   REMARKS
Savannah Arpt  PTSUNNY   81  70  69 S5        30.01F
Atlanta        PTSUNNY   75  68  78 W5        30.00F
Charlotte      PTSUNNY   75  72  88 SW9       30.00S
Dallas DFW     MOSUNNY   82  68  62 S3        29.85R
Houston Bush   PTSUNNY   84  74  71 SW8       29.87S HX  91
Wash National  FAIR      82  69  64 S10       29.88F
Wash Dulles    PTSUNNY   84  70  62 VRB5      29.88F
Baltimore      FAIR      85  70  60 W8        29.86F
Philadelphia   PTSUNNY   79  67  66 SW9       29.86F
Newark         PTSUNNY   86  65  49 W5        29.82F
Laguardia      PTSUNNY   84  64  50 NW6       29.82S
J F K          PTSUNNY   79  69  71 S10       29.84S
Boston         NOT AVBL
Pittsburg      PTSUNNY   80  60  50 SW9       29.89S
Akron          CLOUDY    78  62  57 SW6       29.89S
Cleveland      CLOUDY    75  63  66 SW7       29.87S
Cincinnati     PTSUNNY   76  67  73 SW6       29.90S
Columbus       FAIR      79  66  66 MISG      29.88S
Detroit        CLOUDY    71  60  68 CALM      29.82F
Chicago O'Hare PTSUNNY   79  63  57 SW6       29.79R
Minneapolis    FAIR      79  63  57 SW6       29.72S
Indianapolis   PTSUNNY   76  68  76 SW9       29.85F
Toronto Canada PTSUNNY   77  59  53 S5        29.80S


NYZ176-178-MAZ016-IL014-TNZ027-NJZ106-GAZ044-MD014-261600-

...Gateway Observations for Charleston International...

CITY           SKY/WX    TMP DP  RH WIND       PRES   REMARKS
Chas Airport   PTSUNNY   84  72  67 S8        30.00F
Seattle        PTSUNNY   55  45  68 SE6       30.15R
Charlotte      PTSUNNY   75  72  88 SW9       30.00S
Dallas DFW     MOSUNNY   82  68  62 S3        29.85R
Dallas Love    MOSUNNY   80  68  66 CALM      29.85S
Philladelphia  PTSUNNY   79  67  66 SW9       29.86F
Wash National  FAIR      82  69  64 S10       29.88F
Baltimore      FAIR      85  70  60 W8        29.86F
Miami          LGT RAIN  77  75  93 E14       29.94S FOG
Detroit        CLOUDY    71  60  68 CALM      29.82F
Newark         PTSUNNY   86  65  49 W5        29.82F
Laguardia      PTSUNNY   84  64  50 NW6       29.82S
J F K          PTSUNNY   79  69  71 S10       29.84S
Boston Logan   NOT AVBL
Ft. Lauderdale LGT RAIN  78  76  93 SE17      29.94S
Chicago O'Hare PTSUNNY   79  63  57 SW6       29.79R
Chicago Midway PTSUNNY   77  65  66 W3        29.79S
Houston Bush   PTSUNNY   84  74  71 SW8       29.87S HX  91
Houston Hobby  PTSUNNY   83  76  79 SW12      29.87F HX  91
Nashville      PTSUNNY   78  68  71 VRB6      29.95S
Atlanta        PTSUNNY   75  68  78 W5        30.00F


NYZ176-178-MAZ106-OHZ011-021-055-MIZ076-KYZ091-ILZ014-INZ047-
MNZ060-ONZ431-261600-

...Gateway Observations for Savannah International...

CITY           SKY/WX    TMP DP  RH WIND       PRES   REMARKS
Savannah Arpt  PTSUNNY   81  70  69 S5        30.01F
Atlanta        PTSUNNY   75  68  78 W5        30.00F
Charlotte      PTSUNNY   75  72  88 SW9       30.00S
Dallas DFW     MOSUNNY   82  68  62 S3        29.85R
Houston Bush   PTSUNNY   84  74  71 SW8       29.87S HX  91
Wash National  FAIR      82  69  64 S10       29.88F
Wash Dulles    PTSUNNY   84  70  62 VRB5      29.88F
Baltimore      FAIR      85  70  60 W8        29.86F
Philadelphia   PTSUNNY   79  67  66 SW9       29.86F
Newark         PTSUNNY   86  65  49 W5        29.82F
Laguardia      PTSUNNY   84  64  50 NW6       29.82S
J F K          PTSUNNY   79  69  71 S10       29.84S
Boston         NOT AVBL
Pittsburg      PTSUNNY   80  60  50 SW9       29.89S
Akron          CLOUDY    78  62  57 SW6       29.89S
Cleveland      CLOUDY    75  63  66 SW7       29.87S
Cincinnati     PTSUNNY   76  67  73 SW6       29.90S
Columbus       FAIR      79  66  66 MISG      29.88S
Detroit        CLOUDY    71  60  68 CALM      29.82F
Chicago O'Hare PTSUNNY   79  63  57 SW6       29.79R
Minneapolis    FAIR      79  63  57 SW6       29.72S
Indianapolis   PTSUNNY   76  68  76 SW9       29.85F
Toronto Canada PTSUNNY   77  59  53 S5        29.80S


NYZ176-178-MAZ016-IL014-TNZ027-NJZ106-GAZ044-MD014-261600-

...Gateway Observations for Charleston International...

CITY           SKY/WX    TMP DP  RH WIND       PRES   REMARKS
Chas Airport   PTSUNNY   84  72  67 S8        30.00F
Seattle        PTSUNNY   55  45  68 SE6       30.15R
Charlotte      PTSUNNY   75  72  88 SW9       30.00S
Dallas DFW     MOSUNNY   82  68  62 S3        29.85R
Dallas Love    MOSUNNY   80  68  66 CALM      29.85S
Philladelphia  PTSUNNY   79  67  66 SW9       29.86F
Wash National  FAIR      82  69  64 S10       29.88F
Baltimore      FAIR      85  70  60 W8        29.86F
Miami          LGT RAIN  77  75  93 E14       29.94S FOG
Detroit        CLOUDY    71  60  68 CALM      29.82F
Newark         PTSUNNY   86  65  49 W5        29.82F
Laguardia      PTSUNNY   84  64  50 NW6       29.82S
J F K          PTSUNNY   79  69  71 S10       29.84S
Boston Logan   NOT AVBL
Ft. Lauderdale LGT RAIN  78  76  93 SE17      29.94S
Chicago O'Hare PTSUNNY   79  63  57 SW6       29.79R
Chicago Midway PTSUNNY   77  65  66 W3        29.79S
Houston Bush   PTSUNNY   84  74  71 SW8       29.87S HX  91
Houston Hobby  PTSUNNY   83  76  79 SW12      29.87F HX  91
Nashville      PTSUNNY   78  68  71 VRB6      29.95S
Atlanta        PTSUNNY   75  68  78 W5        30.00F


NYZ176-178-MAZ106-OHZ011-021-055-MIZ076-KYZ091-ILZ014-INZ047-
MNZ060-ONZ431-261600-

...Gateway Observations for Savannah International...

CITY           SKY/WX    TMP DP  RH WIND       PRES   REMARKS
Savannah Arpt  PTSUNNY   81  70  69 S5        30.01F
Atlanta        PTSUNNY   75  68  78 W5        30.00F
Charlotte      PTSUNNY   75  72  88 SW9       30.00S
Dallas DFW     MOSUNNY   82  68  62 S3        29.85R
Houston Bush   PTSUNNY   84  74  71 SW8       29.87S HX  91
Wash National  FAIR      82  69  64 S10       29.88F
Wash Dulles    PTSUNNY   84  70  62 VRB5      29.88F
Baltimore      FAIR      85  70  60 W8        29.86F
Philadelphia   PTSUNNY   79  67  66 SW9       29.86F
Newark         PTSUNNY   86  65  49 W5        29.82F
Laguardia      PTSUNNY   84  64  50 NW6       29.82S
J F K          PTSUNNY   79  69  71 S10       29.84S
Boston         NOT AVBL
Pittsburg      PTSUNNY   80  60  50 SW9       29.89S
Akron          CLOUDY    78  62  57 SW6       29.89S
Cleveland      CLOUDY    75  63  66 SW7       29.87S
Cincinnati     PTSUNNY   76  67  73 SW6       29.90S
Columbus       FAIR      78  66  65 MISG      29.88S
Detroit        CLOUDY    71  60  68 CALM      29.82F
Chicago O'Hare PTSUNNY   79  63  57 SW6       29.79R
Minneapolis    FAIR      79  63  57 SW6       29.72S
Indianapolis   PTSUNNY   76  68  76 SW9       29.85F
Toronto Canada PTSUNNY   77  59  53 S5        29.80S


NYZ176-178-MAZ016-IL014-TNZ027-NJZ106-GAZ044-MD014-261600-

...Gateway Observations for Charleston International...

CITY           SKY/WX    TMP DP  RH WIND       PRES   REMARKS
Chas Airport   PTSUNNY   84  72  67 S8        30.00F
Seattle        PTSUNNY   55  45  68 SE6       30.15R
Charlotte      PTSUNNY   75  72  88 SW9       30.00S
Dallas DFW     MOSUNNY   82  68  62 S3        29.85R
Dallas Love    MOSUNNY   80  68  66 CALM      29.85S
Philladelphia  PTSUNNY   79  67  66 SW9       29.86F
Wash National  FAIR      82  69  64 S10       29.88F
Baltimore      FAIR      85  70  60 W8        29.86F
Miami          LGT RAIN  77  75  93 E14       29.94S FOG
Detroit        CLOUDY    71  60  68 CALM      29.82F
Newark         PTSUNNY   86  65  49 W5        29.82F
Laguardia      PTSUNNY   84  64  50 NW6       29.82S
J F K          PTSUNNY   79  69  71 S10       29.84S
Boston Logan   NOT AVBL
Ft. Lauderdale LGT RAIN  78  76  93 SE17      29.94S
Chicago O'Hare PTSUNNY   79  63  57 SW6       29.79R
Chicago Midway PTSUNNY   77  65  66 W3        29.79S
Houston Bush   PTSUNNY   84  74  71 SW8       29.87S HX  91
Houston Hobby  PTSUNNY   83  76  79 SW12      29.87F HX  91
Nashville      PTSUNNY   78  68  71 VRB6      29.95S
Atlanta        PTSUNNY   75  68  78 W5        30.00F


NYZ176-178-MAZ106-OHZ011-021-055-MIZ076-KYZ091-ILZ014-INZ047-
MNZ060-ONZ431-261600-

...Gateway Observations for Savannah International...

CITY           SKY/WX    TMP DP  RH WIND       PRES   REMARKS
Savannah Arpt  PTSUNNY   81  70  69 S5        30.01F
Atlanta        PTSUNNY   75  68  78 W5        30.00F
Charlotte      PTSUNNY   75  72  88 SW9       30.00S
Dallas DFW     MOSUNNY   82  68  62 S3        29.85R
Houston Bush   PTSUNNY   84  74  71 SW8       29.87S HX  91
Wash National  FAIR      82  69  64 S10       29.88F
Wash Dulles    PTSUNNY   84  70  62 VRB5      29.88F
Baltimore      FAIR      85  70  60 W8        29.86F
Philadelphia   PTSUNNY   79  67  66 SW9       29.86F
Newark         PTSUNNY   86  65  49 W5        29.82F
Laguardia      PTSUNNY   84  64  50 NW6       29.82S
J F K          PTSUNNY   79  69  71 S10       29.84S
Boston         NOT AVBL
Pittsburg      PTSUNNY   80  60  50 SW9       29.89S
Akron          CLOUDY    78  62  57 SW6       29.89S
Cleveland      CLOUDY    75  63  66 SW7       29.87S
Cincinnati     PTSUNNY   76  67  73 SW6       29.90S
Columbus       FAIR      78  66  65 MISG      29.88S
Detroit        CLOUDY    71  60  68 CALM      29.82F
Chicago O'Hare PTSUNNY   79  63  57 SW6       29.79R
Minneapolis    FAIR      79  63  57 SW6       29.72S
Indianapolis   PTSUNNY   76  68  76 SW9       29.85F
Toronto Canada PTSUNNY   77  59  53 S5        29.80S